Showing default

GLOBALSTAR M004, 25163

Orbit data source: Space-Track

GLOBALSTAR M004, 25163 is a payload satellite owned by Globalstar (US) in LEO that was launched on Sat, 14 Feb 1998 UTC via a DELTA 7420-10C launch vehicle from the Air Force Eastern Test Range (AFETR). Payload-class satellites include a variety of spacecraft equipped with specific instruments for various scientific and technological missions. These include communications satellites like Starlink; space stations such as the ISS; scientific satellites like the Hubble; Earth observation satellites from companies like Planet Labs, Umbra, and HawkEye 360; GPS; miniature CubeSats for education and research; and military/defense satellites.

Loading next visibility...
Identifier
25163, 1998-008B
Orbit
LEO
Country
Flag of UnknownUnknown / GLOB
Related business
Manufacturer
SS/Loral
Mission
Non-operational Commercial Communications
Bus & Motor
LS-400, Unknown motor
Mass
450 kg wet, 380 kg dry
Launch date (UTC)
1998-02-14 (28 years ago)
Launch vehicle
DELTA 7420-10C
Launch site
Air Force Eastern Test Range (AFETR)
Object type
Payload
Rocket body
Debris
Shape & HBR
Box + 2 Pan, 6.0 m
Radar Cross Section
5.587 m², Large (>1 m²)

Expand to show TLE details & history
Last TLE update: 18 hours ago

TLE from 18 hours ago
0 GLOBALSTAR M004
1 25163U 98008B   25305.40347201 -.00000071  00000-0  18268-3 0  9995
2 25163  52.0026 355.5352 0002973 228.5185 143.9634 12.63406961279033
Epoch: 2025-11-01T09:40Z
TLE epoch observation values (Epoch: 2025-11-01T09:40:59.981Z)
Latitude
9.80766°
Longitude
177.07396°
Altitude
1,410.736 km
Speed
7.156 km/s
True Right ascension
00h 13m 01s
True Declination
9° 45' 18"
Sunlit
Object was in full shadow at epoch
Visualization orbit readout
Latitude
Unknown
Longitude
Unknown
Altitude
Unknown
Speed
Unknown
Apparent Right ascension
Unknown
Apparent Declination
Unknown
Sunlit
N/A
Visualization observer readout
Local Sidereal Time
23:06:13
Azimuth
Unknown
Elevation
Unknown
Doppler factor
Unknown
Orbital elements
Apogee altitude
1,411.621 km
Perigee altitude
1,406.991 km
Semi-major axis
7,787.443 km
Eccentricity
0.0003
Inclination
52.0026°
RAAN
355.5352°
Arg. of periapsis
228.5185°
True anomaly
143.98344°
Mean anomaly
143.9634°
Eccentric anomaly
143.97342°
Mean motion
3.15828 °/min
Orbital period
113.99 mins
BSTAR
0.00018268
Loading maneuver chart data...
Computing Atmospheric mass density...
Loading historical data...
Loading historical data...
Loading historical data...
Loading historical data...
Loading historical data...
Loading historical data...
Loading historical data...

Documentation

Showing up to 5 results
|